Location: Unspecified
(0.0000°N, 0.0000°E)
Time: 12:48:12
(UTC+00:00)

N. Korean satellite - Pass Details

Date: 13 June 2021
Orbit: 450 x 500 km, 97.2° (Epoch: 18 June)

Event Time Altitude Azimuth Distance (km) Brightness Sun altitude
Rises 04:44:36 0° 18° (NNE) 2,538 10.9 -17.3°
Reaches altitude 10° 04:46:41 10° 23° (NNE) 1,668 9.9 -16.8°
Maximum altitude 04:50:12 55° 101° (E) 598 7.3 -16.0°
Drops below altitude 10° 04:53:47 10° 179° (S) 1,696 9.1 -15.2°
Enters shadow 04:54:47 - 182° (S) 2,113 9.5 -15.0°
